Terminal Aerodrome Forecast
Issued by NWS El Paso, TX

Home | Current Version | Previous Version | Text Only | Print | Product List | Glossary On
Versions: 1 2 3 4 5 6 7 8 9 10 11 12 13 14 15 16
036
FTUS44 KEPZ 291136
TAFELP
TAF
KELP 291136Z 2912/3012 29017G26KT P6SM SKC
     FM291800 28024G35KT P6SM FEW120
     FM300300 28017G25KT P6SM FEW120
     FM300600 28011KT P6SM SKC=

USA.gov is the U.S. government's official web portal to all federal, state and local government web resources and services.